Location: ?
(34.8232°N, 135.7610°E)
Time: 06:04:56
(UTC+00:00)

Daily predictions for brighter satellites

Satellite Brightness Start Highest point End
(mag) Time Altitude Azimuth Time Altitude Azimuth Time Altitude Azimuth
H-2A ROCKET BODY 4.2 18:25:26 62° SSW 18:26:58 66° S 19:22:14 10° ESE
Centaur D AC-28 3.6 18:35:15 41° SE 18:35:15 41° SE 18:43:44 10° ESE
COSMOS 2455 4.4 18:40:27 27° NNE 18:41:43 29° NE 18:46:50 10° ESE
OAO 2 Rocket 4.2 19:06:26 48° ESE 19:06:26 48° ESE 19:10:10 10° ESE
ASTEX 1 4.0 19:04:49 10° SSE 19:09:39 56° E 19:10:09 53° NE
Cosmos 1459 Rocket 4.1 19:16:17 10° S 19:22:25 73° E 19:28:41 10° N
ATLAS 2AS CENTAUR R/B 3.6 19:18:20 20° NNW 19:23:25 49° NE 19:30:04 10° SE
ATLAS CENTAUR R/B 3.1 19:26:47 29° N 19:26:47 29° N 19:29:16 10° NNE
Cosmos 2360 Rocket 4.3 19:22:46 10° N 19:27:16 24° ENE 19:31:44 10° ESE
CZ-3B R/B 3.0 19:27:08 30° SW 19:29:44 39° S 19:34:27 10° ESE
Cosmos 1980 Rocket 3.8 19:36:23 20° SSW 19:36:23 20° SSW 19:38:16 10° SSW
SL-16 R/B 2.5 19:30:39 26° N 19:33:51 65° ENE 19:39:27 10° SSE
Yuri Rocket 4.3 19:33:05 39° SW 19:34:23 45° S 19:39:11 10° ESE
Cosmos 1484 Rocket 4.2 19:31:02 10° NNE 19:34:49 39° E 19:38:33 10° SSE
Meteor 2-20 Rocket 4.3 19:29:52 10° N 19:36:05 89° WSW 19:42:13 10° S
Cosmos 2016 Rocket 4.4 19:30:07 10° S 19:36:15 64° E 19:42:30 10° NNE
Cosmos 1408 4.0 19:34:05 10° S 19:40:33 16° NNE 19:41:21 10° NNE
SL-4 R/B 3.8 19:38:46 26° N 19:40:15 32° NNE 19:44:33 10° E
Cosmos 2322 Rocket 2.6 19:36:15 19° N 19:40:16 62° ENE 19:45:53 10° SSE
Cosmos 1151 Rocket 4.2 19:37:02 10° N 19:41:10 42° E 19:45:16 10° SSE
Meteor 2-20 4.5 19:43:10 36° NW 19:45:26 54° W 19:51:22 10° SSW
Cosmos 2298 Rocket 3.9 19:45:16 30° SW 19:47:47 62° WNW 19:53:03 10° N
COBE Rocket 4.1 19:43:46 10° SSE 19:48:53 75° ENE 19:53:56 10° N
CZ-4B R/B 4.1 19:49:12 10° N 19:53:35 55° WNW 19:57:51 10° SSW
Cosmos 1328 Rocket 3.8 19:49:57 10° N 19:54:15 67° E 19:58:32 10° SSE
Okean O Rocket 3.5 19:51:05 10° NE 19:54:56 30° E 19:58:46 10° SSE
Meteor PRIRODA 3.4 19:51:28 10° N 19:55:07 81° WNW 19:58:44 10° SSW
Cosmos 1743 Rocket 4.4 19:55:09 10° SSE 19:59:20 51° E 20:03:31 10° NNE
Cosmos 2100 Rocket 4.1 19:54:50 10° SSW 20:00:47 48° W 20:06:43 10° N
SL-08 R/B 4.4 19:58:16 10° S 20:04:22 90° WSW 20:10:29 10° N
Cosmos 1437 2.5 20:02:53 10° S 20:05:55 84° E 20:08:59 10° N
Helios 1A Rocket 4.2 20:03:43 10° NNE 20:07:36 42° E 20:11:25 10° S
ALOS 2.8 20:05:00 10° NNE 20:09:38 61° E 20:14:13 10° S
Cosmos 1238 Rocket 4.4 20:06:44 10° S 20:13:15 65° E 20:19:12 10° NNE
Cosmos 1408 Rocket 3.7 20:09:43 10° SSW 20:13:51 46° W 20:18:02 10° N
Delta 2 Rocket 3.5 20:16:10 31° W 20:18:14 80° N 20:23:10 10° E
CZ-4B R/B 3.9 20:13:00 10° NNE 20:18:22 58° E 20:23:50 10° S
Cosmos 1802 Rocket 4.3 20:15:36 10° SSW 20:21:42 45° W 20:27:48 10° N
Cosmos 1500 Rocket 3.6 20:17:21 10° S 20:21:49 87° E 20:26:16 10° N
Cosmos 2333 Rocket 4.3 20:18:59 10° N 20:23:36 24° ENE 20:28:11 10° ESE
PSLV R/B 4.1 20:20:33 10° N 20:24:17 42° WNW 20:28:04 10° SW
COSMOS 2455 3.3 20:23:39 18° NW 20:27:42 40° WSW 20:33:14 10° S
MOS 1-B 4.3 20:25:15 10° N 20:30:57 60° WNW 20:36:36 10° SSW
OAO 3 Rocket 3.7 20:30:26 19° W 20:33:37 47° SSW 20:38:13 10° SE
NOSS 3-4 (A) 3.9 20:27:21 10° NNW 20:34:37 80° WSW 20:42:31 10° SSE
NOSS 3-4 (C) 3.9 20:27:27 10° NNW 20:34:43 81° WSW 20:42:37 10° SSE
Cosmos 1125 Rocket 3.8 20:35:14 10° SW 20:40:14 42° WNW 20:45:13 10° N
CZ-2C R/B 4.3 20:38:13 10° NW 20:38:44 11° NW 20:38:44 11° NW
Cosmos 2233 Rocket 4.0 20:35:51 10° S 20:42:06 76° W 20:48:26 10° N
Timation 2 Rocket 3.9 20:36:34 10° SSW 20:42:39 88° WNW 20:48:40 10° NNE
COSMO-SKYMED 1 2.8 20:40:05 10° S 20:44:14 46° W 20:48:25 10° NNW
SJ-12 4.5 20:42:04 10° N 20:45:52 35° WNW 20:49:38 10° SW
Cosmos 1606 2.6 20:42:56 10° NNW 20:46:43 64° W 20:50:30 10° S
OAO 3 Copernicus 4.3 20:42:37 14° W 20:46:58 87° N 20:52:01 10° E
Cosmos 1825 3.4 20:45:20 10° SW 20:48:09 20° WNW 20:50:59 10° NNW
PAYLOAD B 4.4 20:45:57 10° N 20:51:13 50° WNW 20:56:30 10° SW
USA 116 3.4 20:48:44 10° S 20:51:54 56° W 20:55:22 10° NNW
Radarsat Rocket 4.2 20:46:38 10° NNE 20:52:29 78° ESE 20:58:42 10° SSW
STARLINK-67 2.4 20:51:06 13° NW 20:53:19 71° SW 20:55:54 10° SE
STARLINK 1067 4.5 20:51:55 10° SSW 20:54:25 33° SE 20:56:56 10° ENE
Cosmos 1933 3.7 20:51:12 10° NNW 20:54:58 40° W 20:58:43 10° SSW
STARLINK 1058 4.4 20:52:50 10° SSW 20:55:20 34° SE 20:57:53 10° ENE
STARLINK 1043 4.3 20:53:45 10° SSW 20:56:17 35° SE 20:58:50 10° ENE
Lacrosse 5 rocket 3.3 20:53:54 10° N 20:56:30 19° NE 20:59:06 10° E
STARLINK 1010 4.3 20:54:19 10° SSW 20:56:52 36° SE 20:59:25 10° ENE
Meteor 1-26 Rocket 4.2 20:51:25 10° NNW 20:57:02 76° W 21:02:30 10° S
STARLINK 1065 4.3 20:54:32 10° SSW 20:57:04 36° SE 20:59:37 10° ENE
STARLINK 1027 4.3 20:54:39 10° SSW 20:57:12 36° SE 20:59:47 10° ENE
STARLINK 1028 4.2 20:54:49 10° SSW 20:57:23 37° SE 20:59:58 10° ENE
STARLINK 1021 4.2 20:55:05 10° SSW 20:57:40 37° SE 21:00:17 10° ENE
STARLINK 1019 4.2 20:55:13 10° SSW 20:57:48 37° SE 21:00:25 10° ENE
STARLINK 1012 4.2 20:55:19 10° SSW 20:57:54 37° SE 21:00:30 10° ENE
STARLINK 1026 4.2 20:55:40 10° SSW 20:58:15 38° SE 21:00:51 10° ENE
STARLINK 1063 4.2 20:55:44 10° SSW 20:58:17 37° SE 21:00:52 10° ENE
STARLINK 1013 4.2 20:55:51 10° SSW 20:58:26 38° SE 21:01:02 10° ENE
STARLINK 1009 4.2 20:56:00 10° SSW 20:58:35 38° SE 21:01:11 10° ENE
STARLINK 1015 4.1 20:56:10 10° SSW 20:58:46 38° SE 21:01:22 10° ENE
STARLINK 1016 4.1 20:56:20 10° SSW 20:58:56 39° SE 21:01:33 10° ENE
STARLINK 1064 4.1 20:56:26 10° SSW 20:59:00 38° SE 21:01:36 10° ENE
STARLINK 1008 4.1 20:56:34 10° SSW 20:59:10 39° SE 21:01:48 10° ENE
STARLINK 1014 4.1 20:56:40 10° SSW 20:59:16 39° SE 21:01:52 10° ENE
STARLINK 1025 4.1 20:56:53 10° SSW 20:59:31 40° SE 21:02:09 10° ENE
STARLINK 1017 4.1 20:57:06 10° SSW 20:59:43 40° SE 21:02:21 10° ENE
STARLINK 1023 4.1 20:57:17 10° SSW 20:59:55 40° SE 21:02:33 10° ENE
STARLINK 1007 4.1 20:57:21 10° SSW 20:59:58 40° SE 21:02:35 10° ENE
STARLINK 1041 4.0 20:57:29 10° SSW 21:00:06 40° SE 21:02:43 10° ENE
STARLINK 1048 4.0 20:57:32 10° SSW 21:00:09 40° SE 21:02:46 10° ENE
STARLINK 1049 4.0 20:57:40 10° SSW 21:00:16 40° SE 21:02:55 10° ENE
STARLINK 1045 4.0 20:57:42 10° SSW 21:00:18 40° SE 21:02:55 10° ENE
STARLINK 1051 4.0 20:57:51 10° SSW 21:00:28 41° SE 21:03:06 10° ENE
STARLINK 1037 4.0 20:58:07 10° SSW 21:00:44 41° SE 21:03:23 10° ENE
STARLINK 1059 4.0 20:58:18 10° SSW 21:00:55 41° SE 21:03:34 10° ENE
STARLINK 1038 4.0 20:58:22 10° SSW 21:00:59 41° SE 21:03:36 10° ENE
STARLINK 1057 4.0 20:58:22 10° SSW 21:01:00 41° SE 21:03:39 10° ENE
STARLINK 1052 4.0 20:58:34 10° SSW 21:01:12 42° SE 21:03:49 10° ENE
Cosmos 1315 Rocket 4.1 20:57:22 10° N 21:01:16 44° E 21:05:11 10° SSE
STARLINK 1068 4.0 20:58:44 10° SSW 21:01:22 42° SE 21:04:00 10° ENE
STARLINK 1029 3.9 20:58:53 10° SSW 21:01:31 42° SE 21:04:10 10° ENE
STARLINK 1060 3.9 20:59:02 10° SSW 21:01:39 42° SE 21:04:18 10° ENE
STARLINK 1046 3.9 20:59:20 10° SSW 21:01:57 43° SE 21:04:35 10° ENE
STARLINK 1030 3.9 20:59:21 10° SSW 21:02:00 43° SE 21:04:40 10° ENE
STARLINK 1020 3.9 20:59:24 10° SSW 21:02:03 43° SE 21:04:41 10° ENE
STARLINK 1034 3.9 20:59:34 10° SSW 21:02:13 43° SE 21:04:52 10° ENE
STARLINK 1011 3.9 20:59:54 10° SSW 21:02:32 44° SE 21:05:11 10° ENE
STARLINK 1033 3.9 20:59:56 10° SSW 21:02:35 44° SE 21:05:15 10° ENE
STARLINK 1031 3.8 21:00:07 10° SSW 21:02:46 44° SE 21:05:26 10° ENE
STARLINK 1039 3.8 21:00:18 10° SSW 21:02:56 44° SE 21:05:34 10° ENE
STARLINK 1024 3.8 21:00:26 10° SSW 21:03:06 45° SE 21:05:47 10° ENE
STARLINK 1035 3.8 21:00:34 10° SSW 21:03:15 45° SE 21:05:57 10° ENE
STARLINK 1032 3.8 21:00:38 10° SSW 21:03:18 45° SE 21:05:57 10° ENE
STARLINK 1036 3.8 21:00:58 10° SSW 21:03:37 45° SE 21:06:18 10° ENE
STARLINK 1047 3.7 21:01:20 10° SSW 21:04:00 46° SE 21:06:40 10° ENE
NOAA 6 4.2 20:59:08 10° N 21:04:03 49° WNW 21:08:56 10° SW
Cosmos 2237 4.4 20:58:35 10° NNW 21:04:08 53° WSW 21:09:38 10° S
BREEZE-M DEB (TANK) 3.2 21:04:39 10° NW 21:07:14 38° NNE 21:10:18 10° ESE
Cosmos 2360 Rocket 2.6 21:06:04 10° NW 21:11:24 43° WSW 21:16:42 10° S
Cosmos 1464 Rocket 4.4 21:06:59 10° S 21:13:16 73° E 21:19:30 10° N
ATLAS 2AS CENTAUR R/B 3.6 21:07:48 10° NW 21:13:58 30° WSW 21:19:44 10° SSW
